Weather History for KIML - May, 2013

Change the Weather History Date:

Wednesday, May 8, 2013

  Actual Average Record
Temperature  
Mean Temperature 61 °F 57 °F  
Max Temperature 74 °F 70 °F 99 °F (1934)
Min Temperature 47 °F 43 °F 27 °F (1917)
Degree Days  
Heating Degree Days 4 9  
Month to date heating degree days 136 80  
Cooling Degree Days 0 1  
Month to date cooling degree days 0 4  
Year to date cooling degree days 2 5  
Growing Degree Days 10 (Base 50)    
Moisture  
Dew Point 48 °F    
Average Humidity 68    
Maximum Humidity 100    
Minimum Humidity 35    
Precipitation  
Precipitation 0.46 in 0.07 in 1.62 in (1949)
Sea Level Pressure  
Sea Level Pressure 29.94 in    
Wind  
Wind Speed 8 mph (North)    
Max Wind Speed 22 mph    
Max Gust Speed 28 mph    
Visibility 7 miles    
Events Fog , Rain , Thunderstorm    
T = Trace of Precipitation, MM = Missing Value Source: NWS Daily Summary

Daily Weather History Graph

Daily Weather History Graph

Search for Another Location

Airport or City:

Trip Planner

Search our weather history database for the weather conditions in past years. The results will help you decide how hot, cold, wet, or windy it might be!

Date:

Astronomy

May. 08, 2013 Rise Set
Actual Time 5:36 AM MDT 7:49 PM MDT
Civil Twilight 5:06 AM MDT 8:20 PM MDT
Nautical Twilight 4:29 AM MDT 8:57 PM MDT
Astronomical Twilight 3:48 AM MDT 9:38 PM MDT
Moon 4:46 AM MDT (5/8) 6:49 PM MDT (5/8)
Length of Visible Light 15h 13m
Length of Day
14h 12m
Waning Crescent, 2% of the Moon is Illuminated
May 8
Waning Crescent
May 9
New
May 17
First Quarter
May 24
Full
May 31
Last Quarter

Hourly Weather History & Observations

Time (MDT) Temp. Windchill Dew Point Humidity Pressure Visibility Wind Dir Wind Speed Gust Speed Precip Events Conditions
12:51 AM 50.0 °F - 48.2 °F 94% 29.96 in 5.0 mi North 3.5 mph - N/A   Overcast
12:53 AM 50.0 °F - 48.0 °F 93% 29.94 in 5.0 mi North 4.6 mph - N/A   Overcast
1:29 AM 53.6 °F - 51.8 °F 94% 29.97 in 5.0 mi NNE 13.8 mph - 0.06 in Rain , Thunderstorm Thunderstorms and Rain
1:41 AM 51.8 °F - 48.2 °F 88% 29.97 in 2.5 mi NE 19.6 mph 25.3 mph 0.22 in Rain , Thunderstorm Heavy Thunderstorms and Rain
1:50 AM 50.0 °F - 48.2 °F 94% 29.96 in 2.5 mi NE 16.1 mph - 0.31 in Rain , Thunderstorm Heavy Thunderstorms and Rain
1:53 AM 50.0 °F - 48.0 °F 93% 29.93 in 2.5 mi ENE 17.3 mph - 0.35 in Rain , Thunderstorm Heavy Thunderstorms and Rain
2:09 AM 48.2 °F - 46.4 °F 93% 29.96 in 4.0 mi East 15.0 mph - 0.09 in Rain , Thunderstorm Light Thunderstorms and Rain
2:53 AM 50.0 °F - 48.0 °F 93% 29.89 in 10.0 mi ESE 13.8 mph - 0.11 in Thunderstorm Mostly Cloudy
3:03 AM 50.0 °F - 48.2 °F 94% 29.94 in 10.0 mi East 11.5 mph - N/A   Mostly Cloudy
3:53 AM 48.9 °F - 48.0 °F 97% 29.89 in 10.0 mi SE 8.1 mph - N/A   Partly Cloudy
4:53 AM 48.0 °F - 46.9 °F 96% 29.87 in 10.0 mi Calm Calm - N/A   Clear
5:53 AM 46.9 °F - 46.0 °F 97% 29.90 in 6.0 mi WSW 5.8 mph - N/A   Clear
6:03 AM 46.4 °F 42.9 °F 46.4 °F 100% 29.93 in 4.0 mi WSW 6.9 mph - N/A   Partly Cloudy
6:05 AM 46.4 °F 44.3 °F 46.4 °F 100% 29.93 in 1.2 mi West 4.6 mph - N/A   Scattered Clouds
6:09 AM 48.2 °F - 46.4 °F 93% 29.93 in 0.2 mi West 4.6 mph - N/A Fog Fog
6:26 AM 48.2 °F - 46.4 °F 93% 29.93 in 1.0 mi NW 4.6 mph - N/A   Mist
6:37 AM 48.2 °F - 48.2 °F 100% 29.93 in 3.0 mi NW 4.6 mph - N/A   Scattered Clouds
6:53 AM 48.9 °F - 48.0 °F 97% 29.92 in 1.8 mi NNE 5.8 mph - N/A   Scattered Clouds
6:56 AM 48.2 °F - 48.2 °F 100% 29.95 in 0.8 mi North 5.8 mph - N/A   Mist
7:03 AM 48.2 °F - 48.2 °F 100% 29.95 in 0.8 mi North 4.6 mph - N/A   Mist
7:11 AM 48.2 °F - 48.2 °F 100% 29.96 in 2.0 mi NNW 5.8 mph - N/A   Mostly Cloudy
7:19 AM 48.2 °F - 48.2 °F 100% 29.95 in 6.0 mi NNW 4.6 mph - N/A   Mostly Cloudy
7:43 AM 50.0 °F - 48.2 °F 94% 29.96 in 8.0 mi NW 5.8 mph - N/A   Partly Cloudy
7:53 AM 52.0 °F - 50.0 °F 93% 29.93 in 10.0 mi NNW 6.9 mph - N/A   Partly Cloudy
8:53 AM 55.9 °F - 51.1 °F 84% 29.94 in 10.0 mi Variable 4.6 mph - N/A   Clear
9:53 AM 59.0 °F - 52.0 °F 78% 29.95 in 10.0 mi SSW 6.9 mph - N/A   Partly Cloudy
10:53 AM 64.0 °F - 50.0 °F 60% 29.95 in 10.0 mi Calm Calm - N/A   Clear
11:53 AM 64.9 °F - 51.1 °F 61% 29.94 in 10.0 mi NNW 3.5 mph - N/A   Clear
12:53 PM 69.1 °F - 53.1 °F 57% 29.91 in 10.0 mi ENE 10.4 mph 17.3 mph N/A   Partly Cloudy
1:53 PM 71.1 °F - 50.0 °F 47% 29.90 in 10.0 mi East 11.5 mph 17.3 mph N/A   Clear
2:53 PM 73.0 °F - 48.0 °F 41% 29.88 in 10.0 mi NE 10.4 mph - N/A   Scattered Clouds
3:53 PM 73.0 °F - 45.0 °F 37% 29.87 in 10.0 mi NE 16.1 mph 23.0 mph N/A   Scattered Clouds
4:53 PM 73.0 °F - 44.1 °F 35% 29.88 in 10.0 mi ENE 15.0 mph 24.2 mph N/A   Mostly Cloudy
5:53 PM 70.0 °F - 44.1 °F 39% 29.90 in 10.0 mi ENE 10.4 mph - N/A   Scattered Clouds
6:53 PM 66.0 °F - 46.0 °F 48% 29.94 in 10.0 mi Variable 3.5 mph - N/A   Mostly Cloudy
7:15 PM 57.2 °F - 48.2 °F 72% 29.97 in 10.0 mi West 16.1 mph 27.6 mph N/A   Overcast
7:53 PM 57.9 °F - 46.9 °F 67% 29.96 in 10.0 mi West 16.1 mph - N/A   Overcast
8:53 PM 55.9 °F - 46.9 °F 72% 29.98 in 10.0 mi WNW 11.5 mph 21.9 mph N/A   Scattered Clouds
9:53 PM 54.0 °F - 46.0 °F 75% 29.98 in 10.0 mi NW 13.8 mph - N/A   Partly Cloudy
10:53 PM 52.0 °F - 46.0 °F 80% 29.96 in 10.0 mi NW 6.9 mph - N/A   Scattered Clouds
11:53 PM 51.1 °F - 44.1 °F 77% 29.99 in 10.0 mi North 4.6 mph - N/A   Partly Cloudy